Back to catalog

KUIPER-00622

AliveCommunicationsLEO
NORAD 69779·PAYLOAD·🇺🇸 United States

Launched Jul 2, 2026 from Cape Canaveral Space Force Station

Loading…

Next Passes (next 24 hours)

TLE

FreshSource: CelesTrak SupGP

Epoch: Sep 14, 2026, 17:15 UTC

1 69779C 26151S   26257.71883102 -.00000653  00000+0 -92590-4 0  2576
2 69779  51.8989 258.5930 0001065  68.5153 203.4661 14.76558527    15

Track KUIPER-00622 in real time with AllMySat

Download on the App Store